This is the latest recevied weather packets stored in our database for station/object K4DNM. If no packets are shown the sender has not sent any weather packets the latest 10 day(s).
| Time | Temp. | Humidity | Pressure | Rain* | Wind** | Luminosity | Snow |
|---|---|---|---|---|---|---|---|
| 1777846943 | 17.78° C | 35% | 1014.9 hPa | 0 mm | - | 33 W/m² | - |
| 1777846642 | 17.78° C | 34% | 1014.9 hPa | 0 mm | - | 34 W/m² | - |
| 1777846343 | 18.33° C | 35% | 1014.8 hPa | 0 mm | - | 35 W/m² | - |
| 1777846043 | 18.33° C | 37% | 1014.8 hPa | 0 mm | - | 41 W/m² | - |
| 1777845799 | 18.89° C | 33% | 1014.8 hPa | 0 mm | - | 44 W/m² | - |
| 1777845443 | 18.89° C | 36% | 1014.8 hPa | 0 mm | - | 49 W/m² | - |
| 1777845141 | 18.89° C | 36% | 1014.8 hPa | 0 mm | - | 49 W/m² | - |
| 1777844841 | 18.89° C | 36% | 1014.7 hPa | 0 mm | - | 60 W/m² | - |
| 1777844540 | 19.44° C | 35% | 1014.7 hPa | 0 mm | - | 50 W/m² | - |
| 1777844237 | 19.44° C | 34% | 1014.7 hPa | 0 mm | - | 44 W/m² | - |
| 1777843934 | 19.44° C | 34% | 1014.8 hPa | 0 mm | - | 43 W/m² | - |
| 1777843634 | 19.44° C | 33% | 1014.9 hPa | 0 mm | - | 44 W/m² | - |
| 1777843334 | 20° C | 33% | 1014.8 hPa | 0 mm | - | 44 W/m² | - |
| 1777843034 | 20° C | 38% | 1014.9 hPa | 0 mm | - | 45 W/m² | - |
| 1777842734 | 20° C | 35% | 1014.9 hPa | 0 mm | - | 49 W/m² | - |
| 1777842436 | 20° C | 33% | 1014.9 hPa | 0 mm | - | 78 W/m² | - |
| 1777842133 | 20° C | 32% | 1014.9 hPa | 0 mm | - | 148 W/m² | - |
| 1777841833 | 19.44° C | 30% | 1014.9 hPa | 0 mm | - | 402 W/m² | - |
| 1777841529 | 20° C | 31% | 1014.9 hPa | 0 mm | - | 478 W/m² | - |
| 1777841230 | 20° C | 31% | 1014.9 hPa | 0 mm | - | 519 W/m² | - |
| 1777840926 | 20° C | 31% | 1015 hPa | 0 mm | - | 548 W/m² | - |
| 1777840686 | 20° C | 32% | 1015 hPa | 0 mm | - | 572 W/m² | - |
| 1777840327 | 20° C | 31% | 1015 hPa | 0 mm | - | 585 W/m² | - |
| 1777840084 | 20° C | 33% | 1015 hPa | 0 mm | - | 602 W/m² | - |
| 1777839725 | 20° C | 33% | 1015.1 hPa | 0 mm | - | 617 W/m² | - |
* Rain latest hour (hover to see other rain measurements)
** Current wind speed in m/s (hover to see current wind gust speed)